Regional Weather Roundup
Issued by NWS

Home | Current Version | Previous Version | Text Only | Print | Product List | Glossary On
Versions: 1 2 3 4 5 6 7 8 9 10 11 12 13 14 15 16 17 18 19 20 21 22 23 24 25 26 27 28 29 30 31 32 33 34 35 36 37 38 39 40 41 42 43 44 45 46 47 48 49 50
000
ASUS43 KMKX 272011
RWRWI

WISCONSIN REGIONAL WEATHER ROUNDUP
NATIONAL WEATHER SERVICE MILWAUKEE/SULLIVAN WI
200 PM CST MON FEB 27 2017

NOTE: "FAIR" INDICATES FEW OR NO CLOUDS BELOW 12,000 FEET WITH NO
SIGNIFICANT WEATHER AND/OR OBSTRUCTIONS TO VISIBILITY.

WIZ001-002-006>008-014>016-023>028-272100-
NORTHWEST WISCONSIN

CITY           SKY/WX    TMP DP  RH WIND       PRES   REMARKS
SUPERIOR ARPT  SUNNY     29  23  76 NE7       29.96S WCI  22
ASHLAND        CLOUDY    39  24  55 W5        29.95F
HAYWARD        MOSUNNY   44  19  36 S15G25    29.91F
SIREN          MOSUNNY   45  18  33 SW17      29.90F
CUMBERLAND     MOSUNNY   39  18  41 SW15G22   29.93F WCI  31
RICE LAKE      MOSUNNY   40  20  44 S12       29.96F WCI  33
CHETEK         MOSUNNY   39  21  49 S9        29.96F WCI  32
LADYSMITH      MOSUNNY   40  19  41 S13       29.98F WCI  33
EAU CLAIRE     CLOUDY    39  20  46 S10       29.97F WCI  32
MENOMONIE      MOSUNNY   40  22  47 SE7       29.98F
NEW RICHMOND   MOSUNNY   42  17  36 S15       29.94F
OSCEOLA        MOSUNNY   42  20  40 S15       29.96F
$$

WIZ003>005-009-010-017-018-272100-
NORTH CENTRAL WISCONSIN

CITY           SKY/WX    TMP DP  RH WIND       PRES   REMARKS
MANITOWISH WTR MOSUNNY   38  19  45 SW14G24   29.92F WCI  30
ARBOR VITAE    SUNNY     41  18  38 SW13G20     N/A
WOODRUFF       SUNNY     41  18  38 SW13G20     N/A
RHINELANDER    CLOUDY    40  14  34 SW20G30   29.96F WCI  30
EAGLE RIVER    SUNNY     38  11  32 SW15G25   29.94F WCI  30
LAND O LAKES   MOSUNNY   40  15  37 SW9G18    29.95F WCI  33
PHILLIPS       SUNNY     38  19  46 S15G21    29.94F WCI  29
TOMAHAWK       CLOUDY    39  12  33 SW7       29.97F WCI  34
MEDFORD        CLOUDY    36  20  53 S8        29.98F WCI  29
MERRILL        NOT AVBL
$$

WIZ029-030-035-036-043>047-272100-
CENTRAL WISCONSIN

CITY           SKY/WX    TMP DP  RH WIND       PRES   REMARKS
WAUSAU         SUNNY     38  18  44 S9        29.99F WCI  31
MOSINEE        PTSUNNY   39  21  48 S13       30.01F WCI  32
MARSHFIELD     MOSUNNY   40  18  41 S10       29.98F WCI  33
STEVENS POINT  SUNNY     39  18  42 S9        30.02F WCI  33
WAUPACA        MOSUNNY   44  23  42 SE10      30.05F
WAUTOMA        MOSUNNY   41  24  51 S7        30.05F
WISC RAPIDS    SUNNY     42  19  39 SW10      30.02F
CAMP DOUGLAS   MOSUNNY   43  23  45 S7        30.02F
$$

WIZ011>013-019>022-031-037>040-048>050-272100-
NORTHEAST WISCONSIN

CITY           SKY/WX    TMP DP  RH WIND       PRES   REMARKS
ANTIGO         SUNNY     38  19  45 SW10      30.00F WCI  31
SHAWANO        SUNNY     43  19  38 SW3       30.06F
OCONTO         SUNNY     39  22  51 S10G20    30.07F WCI  32
STURGEON BAY   SUNNY     38  26  62 S17       30.08F WCI  28
GREEN BAY      MOSUNNY   40  27  59 S10       30.07F WCI  33
MANITOWOC      MOSUNNY   38  28  67 S16       30.10F WCI  29
APPLETON       PTSUNNY   39  21  48 S9        30.05F WCI  33
CLINTONVILLE   SUNNY     41  21  45 S9        30.05F
OSHKOSH        MOSUNNY   39  26  59 S9        30.06F WCI  33
$$

WIZ032>034-041-042-053>061-272100-
SOUTHWEST WISCONSIN

CITY           SKY/WX    TMP DP  RH WIND       PRES   REMARKS
LA CROSSE      MOSUNNY   45  25  45 SE5       30.00F
SPARTA         SUNNY     44  24  45 S6        30.02F
VIROQUA        MOSUNNY   42  30  61 S7        30.00F
BOSCOBEL       MOSUNNY   48  34  58 S7        30.02F
PRAIRIE DU CHI SUNNY     48  34  58 S6        30.01F
PLATTEVILLE    SUNNY     47  38  69 S16       30.03F
$$

WIZ056-057-062-063-064-067-068-272100-
SOUTH CENTRAL WISCONSIN

CITY           SKY/WX    TMP DP  RH WIND       PRES   REMARKS
REEDSBURG      SUNNY     43  31  63 S9        30.04S
BARABOO/DELLS  SUNNY     41  29  62 S7        30.04S
LONE ROCK      SUNNY     48  33  56 SW10G17   30.03F
MINERAL POINT  MOSUNNY   46  37  71 S12       30.02F
MADISON        PTSUNNY   47  32  56 SW12      30.04F
MIDDLETON      SUNNY     49  33  53 SW13      30.04F
WATERTOWN      SUNNY     47  31  54 S16       30.06F
MONROE         SUNNY     48  32  53 S12       30.05F
JANESVILLE     MOSUNNY   52  30  43 SW14G20   30.06F
$$

WIZ051-052-058>065-066-070>072-272100-
SOUTHEAST WISCONSIN

CITY           SKY/WX    TMP DP  RH WIND       PRES   REMARKS
MILWAUKEE      PTSUNNY   45  32  60 SE13      30.09F
WAUKESHA       MOSUNNY   45  28  53 SW10      30.09F
MILWAUKEE/TIMM MOSUNNY   46  28  49 S9        30.09F
RACINE         SUNNY     43  32  65 S17       30.11F
KENOSHA        SUNNY     49  33  54 SE14      30.08F
FOND DU LAC    CLOUDY    40  26  57 S8        30.06F WCI  34
SHEBOYGAN      CLOUDY    37  29  72 S8        30.10F WCI  31
WEST BEND      CLOUDY    43  32  65 SE7       30.08F
JUNEAU         CLOUDY    43  32  63 S12       30.07F
$$

LSZ147-162-272100-
LAKE SUPERIOR

STATION/POSITION TIME  TEMP    WIND        PRES    WAVE
                       AIR SEA DIR/SP/G            HT/PER
                 (UTC) (F)     (DEG/KT/KT) (MB)    (FT/S)
DEVILS ISLAND    2000   26      50/  4/  6 1016.1F
PORT WING        1940   27      20/ 10/ 12 1014.9F
SAXON HARBOR     1940   29      40/  4/  6 1014.6F
$$

LMZ867-665-643>646-272100-
LAKE MICHIGAN

STATION/POSITION TIME  TEMP    WIND        PRES    WAVE
                       AIR SEA DIR/SP/G            HT/PER
                 (UTC) (F)     (DEG/KT/KT) (MB)    (FT/S)
CHAMBERS ISLAND  1940   37     190/  6/ 11 1018.6F
NORTHPORT PIER   1940   38     160/  8/ 14 1019.0S
SISTER BAY       1935          190/ 15/ 17   N/A
KEWAUNEE LAKESHO 1948   36     180/ 13/ 15 1019.0F
SHEBOYGAN LAKESH 2000   36     160/  8/  9 1019.9F
PORT WASHINGTON  1940   39     150/  5/  7 1020.3F
MILWAUKEE LAKESH 1950   37     130/ 13/ 15   N/A
KENOSHA   LAKESH 2000   39     170/ 13/ 15 1019.0
$$

TC  - TEMPERATURE IN CELSIUS
VSB - VISIBILITY IN STATUTE MILES
WCI - WIND CHILL INDEX
HX  - HEAT INDEX





USA.gov is the U.S. government's official web portal to all federal, state and local government web resources and services.